DHK705 EGLL-EDDP

Flight info

Callsign DHK705
Flight time N/A
Altitude 35000
Route BPK Q295 BRAIN M197 REDFA DCT TACHA DCT AMSAN DCT NORTA/N0436F230 DCT ADMOS T959 KOJEC KOJEC1R
Aircraft B77L/H-SDE1E2E3FGHIJ2J3J4J5M1RWXY/LB1D1

Departure

Time 2026-05-06 20:36
Airport London Heathrow Airport (EGLL)

Arrival

Time N/A
Airport Leipzig/Halle Airport (EDDP)
Time Latitude Longitude Altitude Speed Heading
2026-05-06 19:58 51.46193 -0.46708 89 ft 0 kts 180°
2026-05-06 20:25 51.46206 -0.46708 89 ft 4 kts 181°
2026-05-06 20:25 51.46235 -0.46707 88 ft 4 kts 182°
2026-05-06 20:25 51.46263 -0.46705 88 ft 4 kts 183°
2026-05-06 20:26 51.46292 -0.46703 87 ft 4 kts 180°
2026-05-06 20:26 51.46312 -0.46701 87 ft 1 kts 212°
2026-05-06 20:26 51.46321 -0.46684 87 ft 1 kts 257°
2026-05-06 20:26 51.46321 -0.46660 87 ft 3 kts 276°
2026-05-06 20:27 51.46319 -0.46622 88 ft 2 kts 272°
2026-05-06 20:27 51.46319 -0.46620 88 ft 0 kts 272°
2026-05-06 20:30 51.46319 -0.46621 88 ft 0 kts 272°
2026-05-06 20:31 51.46320 -0.46687 87 ft 13 kts 273°
2026-05-06 20:31 51.46321 -0.46878 85 ft 18 kts 270°
2026-05-06 20:31 51.46322 -0.47079 84 ft 17 kts 270°
2026-05-06 20:31 51.46321 -0.47267 86 ft 15 kts 270°
2026-05-06 20:32 51.46337 -0.47431 87 ft 18 kts 278°
2026-05-06 20:32 51.46311 -0.47701 86 ft 26 kts 242°
2026-05-06 20:32 51.46249 -0.47966 83 ft 25 kts 266°
2026-05-06 20:32 51.46250 -0.48234 83 ft 23 kts 272°
2026-05-06 20:33 51.46247 -0.48486 83 ft 21 kts 270°
2026-05-06 20:33 51.46275 -0.48655 83 ft 10 kts 302°
2026-05-06 20:33 51.46336 -0.48734 83 ft 14 kts 340°
2026-05-06 20:33 51.46447 -0.48748 83 ft 14 kts
2026-05-06 20:34 51.46477 -0.48655 83 ft 0 kts 91°
2026-05-06 20:34 51.46477 -0.48645 83 ft 3 kts 90°
2026-05-06 20:34 51.46477 -0.48638 83 ft 0 kts 90°
2026-05-06 20:35 51.46477 -0.48612 83 ft 10 kts 90°
2026-05-06 20:36 51.46482 -0.48073 83 ft 89 kts 95°
2026-05-06 20:36 51.46488 -0.46657 84 ft 162 kts 91°
2026-05-06 20:36 51.46469 -0.44614 398 ft 199 kts 91°
2026-05-06 20:36 51.46478 -0.42435 1573 ft 195 kts 87°
2026-05-06 20:37 51.46637 -0.40381 2228 ft 197 kts 71°
2026-05-06 20:37 51.47226 -0.38346 2741 ft 206 kts 57°
2026-05-06 20:37 51.48142 -0.36482 3181 ft 222 kts 50°
2026-05-06 20:37 51.49167 -0.34517 3657 ft 238 kts 51°
2026-05-06 20:38 51.50261 -0.32409 4171 ft 252 kts 51°
2026-05-06 20:38 51.51388 -0.30235 4883 ft 258 kts 51°
2026-05-06 20:38 51.52503 -0.27999 5601 ft 263 kts 58°
2026-05-06 20:38 51.53276 -0.25330 6320 ft 268 kts 70°
2026-05-06 20:39 51.53899 -0.22487 7058 ft 272 kts 71°
2026-05-06 20:39 51.54552 -0.19641 7769 ft 275 kts 62°
2026-05-06 20:39 51.55748 -0.17297 8420 ft 277 kts 36°
2026-05-06 20:39 51.57461 -0.16012 9079 ft 278 kts 10°
2026-05-06 20:40 51.59391 -0.16052 9747 ft 279 kts 348°
2026-05-06 20:40 51.61283 -0.16452 10351 ft 284 kts
2026-05-06 20:40 51.63296 -0.15990 10666 ft 301 kts 12°
2026-05-06 20:40 51.65374 -0.15116 11001 ft 318 kts 15°
2026-05-06 20:41 51.67549 -0.14018 11399 ft 334 kts 20°
2026-05-06 20:41 51.69682 -0.12345 11815 ft 351 kts 30°
2026-05-06 20:41 51.71697 -0.10002 12220 ft 367 kts 39°
2026-05-06 20:41 51.73479 -0.07004 12827 ft 382 kts 50°
2026-05-06 20:42 51.74923 -0.03381 13583 ft 390 kts 61°
2026-05-06 20:42 51.75925 0.00703 14459 ft 397 kts 72°
2026-05-06 20:42 51.76442 0.05061 15345 ft 404 kts 81°
2026-05-06 20:42 51.76780 0.09598 16279 ft 409 kts 82°
2026-05-06 20:43 51.77119 0.14149 17145 ft 415 kts 82°
2026-05-06 20:43 51.77470 0.18744 17980 ft 421 kts 82°
2026-05-06 20:43 51.77839 0.23475 18814 ft 427 kts 82°
2026-05-06 20:43 51.78213 0.28243 19640 ft 432 kts 82°
2026-05-06 20:44 51.78589 0.33012 20441 ft 438 kts 82°
2026-05-06 20:44 51.78975 0.37902 21238 ft 443 kts 82°
2026-05-06 20:44 51.79366 0.42846 22002 ft 448 kts 81°
2026-05-06 20:44 51.79758 0.47830 22738 ft 453 kts 82°
2026-05-06 20:45 51.80157 0.52914 23483 ft 458 kts 82°
2026-05-06 20:45 51.80555 0.58006 24192 ft 463 kts 82°
2026-05-06 20:45 51.80957 0.63163 24856 ft 468 kts 81°
2026-05-06 20:45 51.81584 0.68338 25494 ft 472 kts 76°
2026-05-06 20:46 51.82366 0.73443 26136 ft 477 kts 75°
2026-05-06 20:46 51.83180 0.78699 26777 ft 482 kts 75°
2026-05-06 20:46 51.83998 0.83904 27406 ft 486 kts 74°
2026-05-06 20:46 51.84958 0.89188 28023 ft 492 kts 72°
2026-05-06 20:47 51.85943 0.94496 28641 ft 497 kts 72°
2026-05-06 20:47 51.86930 0.99845 29294 ft 501 kts 73°
2026-05-06 20:47 51.87911 1.05197 30106 ft 501 kts 73°
2026-05-06 20:47 51.88893 1.10588 31059 ft 498 kts 73°
2026-05-06 20:48 51.89874 1.16004 31931 ft 495 kts 73°
2026-05-06 20:48 51.90859 1.21462 32755 ft 492 kts 73°
2026-05-06 20:48 51.91814 1.26780 33486 ft 490 kts 73°
2026-05-06 20:48 51.92759 1.32062 34130 ft 488 kts 73°
2026-05-06 20:49 51.93699 1.37333 34735 ft 488 kts 73°
2026-05-06 20:49 51.94642 1.42642 34989 ft 491 kts 73°
2026-05-06 20:49 51.95581 1.47940 35009 ft 489 kts 73°
2026-05-06 20:50 51.97446 1.58525 35015 ft 486 kts 73°
2026-05-06 20:50 51.99281 1.69001 35011 ft 488 kts 74°
2026-05-06 20:51 52.00968 1.79697 35012 ft 489 kts 76°
2026-05-06 20:51 52.02606 1.90344 35014 ft 488 kts 76°
2026-05-06 20:52 52.04235 2.00964 35016 ft 489 kts 76°
2026-05-06 20:52 52.05869 2.11666 35012 ft 488 kts 76°
2026-05-06 20:53 52.07487 2.22321 35008 ft 487 kts 76°
2026-05-06 20:53 52.09094 2.32969 35009 ft 487 kts 76°
2026-05-06 20:54 52.10685 2.43576 35012 ft 486 kts 76°
2026-05-06 20:54 52.12382 2.54165 35015 ft 487 kts 72°
2026-05-06 20:55 52.14425 2.64665 35008 ft 488 kts 71°
2026-05-06 20:55 52.16452 2.75197 35009 ft 488 kts 72°